STARLINK-1094, 44941

Orbit data source: Space-Track

STARLINK-1094, 44941 is a payload satellite owned by SpaceX/Seattle (US) in LEO that was launched on Tue, 07 Jan 2020 UTC via an FALCON 9 launch vehicle from the Air Force Eastern Test Range (AFETR). Payload-class satellites include a variety of spacecraft equipped with specific instruments for various scientific and technological missions. These include communications satellites like Starlink; space stations such as the ISS; scientific satellites like the Hubble; Earth observation satellites from companies like Planet Labs, Umbra, and HawkEye 360; GPS; miniature CubeSats for education and research; and military/defense satellites.

Loading next visibility...
Identifier
44941, 2020-001AD
Orbit
LEO
Country
Flag of USUS
Related business
Manufacturer
SpaceX/Seattle
Mission
Operational Commercial Communications
Bus & Motor
STARLINK, Unknown motor
Mass
260 kg wet, ~248 kg dry
Launch date (UTC)
2020-01-07 (6 years ago)
Launch vehicle
FALCON 9
Launch site
Air Force Eastern Test Range (AFETR)
Object type
Payload
Rocket body
Debris
Shape & HBR
Box + 1 Pan, 10.1 m
Radar Cross Section
13.562 m², Large (>1 m²)

Expand to show TLE details & history
Last TLE update: 1 day ago

TLE from 1 day ago
0 STARLINK-1094
1 44941U 20001AD  25287.64038419  .00000082  00000-0  24399-4 0  9995
2 44941  53.0540 262.2605 0001144  91.2067 268.9053 15.06400003318115
Epoch: 2025-10-14T15:22Z
TLE epoch observation values (Epoch: 2025-10-14T15:22:09.194Z)
Latitude
-0.00005°
Longitude
8.29625°
Altitude
548.106 km
Speed
7.589 km/s
True Right ascension
17h 29m 02s
True Declination
0° 00' 00"
Sunlit
Object was in daylight at epoch
Visualization orbit readout
Latitude
Unknown
Longitude
Unknown
Altitude
Unknown
Speed
Unknown
Apparent Right ascension
Unknown
Apparent Declination
Unknown
Sunlit
N/A
Visualization observer readout
Local Sidereal Time
11:53:26
Azimuth
Unknown
Elevation
Unknown
Doppler factor
Unknown
Orbital elements
Apogee altitude
548.275 km
Perigee altitude
546.69 km
Semi-major axis
6,925.619 km
Eccentricity
0.00011
Inclination
53.054°
RAAN
262.2605°
Arg. of periapsis
91.2067°
True anomaly
268.89219°
Mean anomaly
268.9053°
Eccentric anomaly
268.89875°
Mean motion
3.76578 °/min
Orbital period
95.6 mins
BSTAR
0.000024399
Loading maneuver chart data...
Computing Atmospheric mass density...

Documentation

Showing up to 5 results
|